Starlink 35069

operational
NORAD ID: 66268 Int'l Des: 2025-247 Owner: SPXS Country: US Constellation: starlink
NOTLE

About Starlink 35069

Description loading...

Live Position

Loading 3D Globe...

Upcoming Passes

Altitude History

Altitude vs Time

uPlot chart will show altitude changes over time

Two-Line Element Set

1 66268U 25247D 25351.89715345 .00027233 00000-0 68842-3 0 9994
2 66268 53.1592 213.2953 0001189 94.2286 265.8855 15.39617447 8486
Epoch: Dec 17, 2025 • Age: 14 hours

Current Status

Altitude 454.2 km
Velocity 7.64 km/s
Sub-Earth Point -23.03°S, 66.64°W
Launch Date Oct 31, 2025
Age 0.1 years
Type internet

Technical Details

Classification Payload
Mass 575.00 kg
Dry Mass 530.00 kg
Total Mass 575.00 kg
Length 0.30 m
Diameter 4.10 m
Span 29.00 m
Shape Box + pan
Manufacturer SPXS
Bus Type Starlink V2MO
Phase Status In Orbit
Owner/State SPXS/US

Large Constellations

Loading constellations...